{"data":{"norad_id":53491,"intl_designator":"2022-099AC","name":"STARLINK-4450","alt_names":[],"object_type":"PAYLOAD","status":"ACTIVE","operator":null,"country":"US","launch_date":"2022-08-12","launch_site_code":"AFWTR","launch_vehicle":null,"mission":null,"orbit_class":"UNKNOWN","rcs_meters":null,"size_class":null,"mass_kg":null,"dimensions":null,"purposes":["comms"],"wikipedia_slug":null,"has_3d_model":false,"image_url":null,"decayed_at":null,"tle_current":{"epoch":"2026-05-25T04:00:03.998880Z","epoch_age_seconds":57330,"freshness":"FRESH","line1":"1 53491U 22099AC  26145.16671295  .00711738  00000+0  12924-1 0  9994","line2":"2 53491  97.6037 267.5370 0001275  83.1366  41.1708 15.47300340  5786","mean_motion":15.4730034,"eccentricity":0.0001275,"inclination_deg":97.6037,"raan_deg":267.537,"arg_perigee_deg":83.1366,"mean_anomaly_deg":41.1708,"bstar":0.012924,"rev_number":578,"period_min":93.06531917391,"perigee_km":423.76000110268,"apogee_km":425.49470601283,"semimajor_km":6802.7643535578,"source":"CELESTRAK","updated_at":"2026-05-25T13:38:17.435340Z"}}}